Вернуться в каталог

ARIANE 2 DEB

АктивенHEO
NORAD 33584·DEBRIS·🇫🇷 France

Запущен Apr 2, 1989 с Guiana Space Centre

Loading…

Ближайшие Пролёты (ближайшие 24 часа)

TLE

СвежийSource: Space-Track

Эпоха: Sep 12, 2026, 10:16 UTC

1 33584U 89027E   26255.42800322  .00000854  00000-0  10768-2 0  9991
2 33584   5.9792 335.8045 6045206 132.0823 298.1349  3.85577569170084

Отслеживайте ARIANE 2 DEB в реальном времени с AllMySat

Download on the App Store